Cloud_Cover
100 27 99 93 100 99 49 1 0 0 14 49 42 50 72 94 6 62 10 5 8 80 6 6 3 2 24 3 62 96 7 0 0 13 96 5 6 8 5 3 5 5 68 97 23 64 26 3 0
100 100 98 70 100 19 9 67 38 95 14 14 5 73 20 30 70 100 73 5 7 78 100 100 47 5 5 2 18 95 2 2 0 3 5 73 11 91 49 5 9 4 84 74 84 90 100 53 0
100 99 100 96 99 41 27 95 41 77 98 6 1 32 62 10 2 92 100 84 20 6 96 100 96 71 65 72 97 16 4 1 3 2 0 5 10 100 54 4 5 79 100 100 100 100 99 74 0
0 1 69 100 100 97 100 100 98 88 83 68 3 0 5 0 1 0 2 99 5 5 5 94 100 65 50 100 100 38 3 0 4 2 6 51 10 50 86 2 8 92 99 100 100 100 74 0 0
0 0 0 2 72 62 83 83 98 100 20 100 18 73 90 52 8 4 88 100 100 100 50 42 76 100 94 78 100 100 82 8 6 5 6 56 99 85 21 0 4 5 100 100 19 5 51 5 0
0 0 0 0 0 0 0 0 0 0 0 22 34 70 12 4 54 99 100 100 98 86 83 50 100 100 100 100 100 100 100 96 34 89 89 100 56 82 83 5 10 4 100 99 70 5 5 5 2
0 0 0 0 0 0 0 0 0 0 0 0 0 5 21 21 54 89 100 100 100 100 73 33 100 100 100 100 100 100 100 100 100 34 100 99 94 94 97 5 12 7 45 98 5 5 5 5 5
0 0 0 0 0 0 0 0 0 0 0 0 0 67 26 4 72 67 100 100 100 100 100 40 24 100 100 100 100 100 100 100 100 100 100 100 100 100 83 41 9 5 10 4 10 5 17 97 9
0 0 0 0 0 0 0 0 0 0 0 0 33 98 100 43 47 97 100 100 100 100 100 100 44 57 100 100 100 100 100 100 100 100 100 100 100 100 100 95 66 30 11 40 22 16 64 62 100
0 0 0 0 0 0 0 0 0 0 0 0 1 36 73 92 96 94 100 100 100 100 100 100 86 59 59 100 100 100 100 100 100 100 100 100 100 100 100 100 62 100 100 83 100 100 46 100 96
0 0 0 0 0 0 0 0 0 0 35 89 87 96 100 75 100 100 100 100 100 100 100 100 100 100 42 78 100 100 100 100 100 100 100 100 100 100 100 100 100 100 100 94 98 100 90 97 100
0 0 0 0 0 0 0 0 5 4 10 0 98 98 100 100 100 100 100 100 100 100 100 100 100 100 100 100 98 100 100 100 100 100 100 100 100 100 100 100 100 100 100 100 100 100 100 100 100
0 0 0 0 0 0 0 1 4 5 1 0 0 66 98 100 100 100 100 100 100 100 100 100 100 100 100 100 100 100 100 100 100 100 100 100 100 100 100 100 100 100 100 100 100 100 100 100 100
0 0 0 0 0 0 0 1 4 5 5 0 1 0 68 100 100 100 100 100 100 100 100 100 100 100 100 100 100 100 100 100 100 100 100 100 100 100 100 100 100 100 100 100 100 100 100 100 100
0 0 0 0 0 0 0 0 0 2 0 0 0 5 45 99 100 100 100 100 100 100 100 100 100 100 100 100 100 100 100 100 100 100 100 100 100 100 100 100 100 100 100 100 100 100 100 100 100
0 0 0 0 0 0 0 0 0 5 4 0 0 0 5 72 100 100 100 100 100 100 100 100 100 100 100 100 100 100 100 100 100 100 100 100 100 100 100 100 100 99 97 100 100 100 100 100 100
0 0 0 0 0 0 0 0 0 0 0 0 1 0 2 90 100 100 100 94 100 100 100 100 100 100 100 100 100 100 100 100 100 100 100 100 100 100 100 100 100 100 100 100 100 100 100 100 100
2 0 0 1 0 0 0 0 0 0 0 0 44 0 2 70 100 100 96 68 100 100 100 100 100 100 100 100 100 100 100 100 100 100 100 100 100 100 100 100 100 100 100 100 100 100 100 100 100
0 0 0 0 0 0 4 1 0 0 0 0 66 7 2 47 100 100 100 100 100 100 100 100 100 100 100 100 100 100 100 100 100 100 100 100 100 100 100 100 100 100 100 100 100 100 100 100 100
0 0 3 0 0 1 0 3 0 0 0 0 100 93 5 89 100 100 100 100 100 100 100 100 100 100 100 100 100 100 100 100 100 100 100 100 100 100 96 100 100 100 100 100 100 100 100 100 100
4 5 5 5 3 5 0 0 0 1 0 0 92 100 70 9 98 100 95 90 100 100 100 100 100 100 100 100 100 100 100 100 100 100 100 100 100 100 100 100 100 100 100 100 100 100 100 100 100
5 4 5 5 5 5 5 4 0 5 2 0 100 100 100 47 97 100 100 88 100 100 100 100 100 100 100 100 100 100 100 100 100 100 100 100 100 100 100 100 100 100 100 100 100 100 100 100 97
1 4 4 0 5 5 5 4 4 5 2 0 31 86 99 94 100 100 100 100 100 98 100 100 100 100 100 100 100 100 95 100 100 100 100 100 100 99 100 99 100 100 100 100 100 100 100 100 100
4 1 5 5 5 20 5 2 2 4 2 0 0 1 3 0 98 89 100 100 100 100 100 100 100 100 100 100 100 100 100 100 100 100 100 100 100 100 100 100 100 100 100 100 100 100 100 97 98
1 5 16 4 8 16 0 1 0 0 0 0 0 0 0 0 4 93 94 75 100 100 100 100 100 100 100 100 100 100 100 100 100 100 100 100 100 100 100 100 100 100 100 100 100 100 100 100 100
5 4 5 6 70 5 0 0 0 0 0 0 0 0 0 0 0 0 0 2 62 100 100 100 100 100 100 100 100 100 100 100 100 100 100 100 100 100 100 100 100 100 100 100 100 100 100 100 100
5 5 5 5 12 83 4 0 0 0 0 0 5 5 0 0 0 0 0 0 4 23 100 100 100 100 100 100 100 100 100 100 100 100 100 100 100 100 100 100 100 100 100 100 100 100 100 100 100
0 4 4 5 5 5 4 2 1 0 0 0 0 5 7 0 0 0 0 0 0 5 97 100 100 100 100 100 100 100 100 100 100 100 100 100 100 100 100 100 100 100 100 100 100 100 100 100 100
5 5 5 5 5 51 86 2 0 0 0 0 0 2 4 4 1 0 0 0 1 5 46 100 100 100 100 100 100 100 100 100 100 100 100 100 100 100 100 100 100 100 100 100 100 100 100 100 100
5 5 5 5 7 24 10 17 0 0 0 0 0 0 0 1 4 2 0 0 5 5 16 100 100 100 100 100 100 100 100 100 100 100 100 100 100 100 100 100 100 100 100 100 100 100 100 100 100